NOVA 3

导读

NOVA 3(诺瓦3号)是美国无线电公司研发的导航卫星,于1984年10月12日08:00在范登堡空军基地由侦察兵-G1火箭发射升空,卫星质量170kg,国际卫星标识符为1984-110A,NORAD编号15362,属于诺瓦卫星系列。它运行在近地点1153km、远地点1202km,倾角90.05°的轨道上,主要承担导航服务任务,是美国早期导航卫星体系的重要组成。

Basic Information
目录编号:
15362
目录名称:
NOVA 3
国际标识:
1984-110A
轨道中心:
EARTH
卫星名称:
NOVA 3
卫星全名:
--
卫星状态:
在轨 (已飞行15309 天)
发射日期:
1984-10-12 UTC
国别 :
美国 (US)
星等 :
--
This satellite is enrolled in the Space Conjunction Data Service (SCDS) and the current flight risk assessment level is: No High Risk
Orbit Information
数据来源 国际轨道数据 AOE轨道数据
星历时间 2026-09-11T08:49:44+0800
14小时前
查看轨道信息
2026-09-09T22:00:00+0800
2天前
查看轨道信息
半长轴 7551.13km 7551.127km
偏心率 0.0029948 0.0029974
轨道倾角 90.111° 90.111°
近地点辐角 300.794° 304.813°
升交点赤经 83.600° 83.584°
平近点角 226.918° 154.706°
近地点 1150.378km 1150.356km
远地点 1195.608km 1195.624km
周期 108.837分钟 108.837分钟
每日圈数 13.230762 13.23077
Detailed Information
使用方式:
暂无
2D Orbit Map
3D Orbit Map
Orbit Altitude Analysis Chart
Orbit Inclination Analysis Chart
Orbit Comprehensive Analysis Chart
View Comprehensive Chart
Conjunction Data List
Event ID Objects TCA Miss Dist (km) Collision Risk Probability Collision Risk Index (CRI) Action
CDM_260914-010101-536204-908021
NOVA 3 (15362)
2026-09-14T
01:01:34+0000
1.322 km
极远距离
8.220686E-6 低风险 0.53
CDM_260912-143201-536205-514026
NOVA 3 (15362)
2026-09-12T
14:32:27+0000
1.824 km
极远距离
2.979392E-6 低风险 0.44
Miss Distance Evolution Trend with All Objects
Collision Probability Evolution Trend with All Objects